Flight Track Log - Related Links

Times and Time Zones

All times are in EDT time to prevent confusion due to time zone crossing. See the N960DL flight status page for this flight to view local times or setup timezone preferences in your user account.

Time Position Orientation Groundspeed Altitude Reporting Facility
EDT Latitude Longitude Course Direction KTS MPH feet Rate Location/Type
08:22PM 42.1953 -83.3581 North 178 205 1,400  Level Cleveland Center
08:23PM 42.1264 -83.3633 183° South 223 257 3,600 2,014 Climbing Cleveland Center
08:25PM 42.5458 -83.3500 North  Level FlightAware Approximate
08:25PM 42.0606 -83.3242 156° South 284 327 6,100  Level Cleveland Center
08:25PM 42.0564 -83.2400 94° East 275 316 8,600 2,089 Climbing Cleveland Center
08:26PM 42.6611 -83.3500 North  Level FlightAware Approximate
08:26PM 42.0694 -83.1231 81° East 323 372 10,000  Level Cleveland Center
08:27PM 42.7763 -83.3500 North  Level FlightAware Approximate
08:27PM 42.1214 -83.0356 51° Northeast 319 367 11,100  Level Cleveland Center
08:28PM 42.8658 -83.3500 North  Level FlightAware Approximate
08:28PM 42.2094 -83.0053 14° North 313 360 13,100  Level Cleveland Center
08:29PM 42.2983 -83.0481 340° North 299 344 15,900 2,750 Climbing Cleveland Center
08:30PM 42.3950 -83.1025 337° Northwest 315 362 18,600 2,150 Climbing Cleveland Center
08:31PM 42.4817 -83.1508 338° Northwest 328 377 20,200 1,650 Climbing Cleveland Center
08:32PM 42.5744 -83.1969 340° North 333 383 21,900 1,500 Climbing Cleveland Center
08:33PM 42.6669 -83.2458 339° North 346 398 23,200 1,400 Climbing Cleveland Center
08:34PM 42.7639 -83.2953 339° North 357 411 24,700 1,350 Climbing Cleveland Center
08:35PM 42.8647 -83.3478 339° North 369 425 25,900 1,200 Climbing Cleveland Center
08:36PM 42.9656 -83.4006 339° North 380 437 27,100 900 Climbing Cleveland Center
08:37PM 43.0294 -83.5144 308° West 380 437 27,700 650 Climbing Cleveland Center
08:38PM 43.0908 -83.6422 303° West 379 436 28,400 700 Climbing Cleveland Center
08:39PM 43.1539 -83.7736 303° West 396 456 29,100 900 Climbing Cleveland Center
08:40PM 43.2147 -83.9078 302° West 411 473 30,200 1,000 Climbing Cleveland Center
08:41PM 43.2675 -84.0247 302° West 421 484 31,100 950 Climbing Cleveland Center
08:42PM 43.3322 -84.1625 303° West 421 484 32,100 850 Climbing Cleveland Center
08:43PM 43.3906 -84.2944 301° West 421 484 32,800 1,041 Climbing Cleveland Center
08:44PM 43.4339 -84.3928 301° West 413 475 33,800 727 Climbing Minneapolis Center
08:45PM 43.4944 -84.5228 303° West 411 473 34,000 98 Climbing Minneapolis Center
08:46PM 43.5522 -84.6508 302° West 405 466 34,000  Level Minneapolis Center
08:47PM 43.6097 -84.7811 301° West 402 463 34,000  Level Minneapolis Center
08:48PM 43.6672 -84.9117 301° West 401 461 34,000  Level Minneapolis Center
08:49PM 43.7225 -85.0428 300° West 400 460 34,000  Level Minneapolis Center
08:50PM 43.7889 -85.1994 300° West 398 458 34,000  Level Minneapolis Center
08:51PM 43.8431 -85.3300 300° West 396 456 34,000  Level Minneapolis Center
08:52PM 43.8961 -85.4564 300° West 390 449 34,000  Level Minneapolis Center
08:53PM 43.9506 -85.5853 300° West 390 449 34,000  Level Minneapolis Center
08:54PM 44.0044 -85.7156 300° West 391 450 34,000  Level Minneapolis Center
08:55PM 44.0392 -85.8567 289° West 390 449 34,000  Level Minneapolis Center
08:56PM 44.0808 -86.0275 289° West 391 450 34,000  Level Minneapolis Center
08:57PM 44.1094 -86.1519 288° West 393 452 34,000  Level Minneapolis Center
08:58PM 44.1500 -86.3258 288° West 394 453 34,000  Level Minneapolis Center
09:00PM 44.1819 -86.4728 287° West 394 453 34,000  Level Minneapolis Center
09:01PM 44.2153 -86.6208 287° West 398 458 34,000  Level Minneapolis Center
09:02PM 44.2486 -86.7731 287° West 406 467 34,000  Level Minneapolis Center
09:03PM 44.2822 -86.9253 287° West 409 471 34,000  Level Minneapolis Center
09:04PM 44.3169 -87.0789 288° West 413 475 34,000  Level Minneapolis Center
09:05PM 44.3567 -87.2603 287° West 417 480 34,000  Level Minneapolis Center
09:06PM 44.3883 -87.4142 286° West 415 478 34,000  Level Minneapolis Center
09:07PM 44.4217 -87.5669 287° West 415 478 34,000  Level Minneapolis Center
09:08PM 44.4542 -87.7231 286° West 419 482 34,000  Level Minneapolis Center
09:09PM 44.4894 -87.8894 287° West 425 489 34,000  Level Minneapolis Center
09:10PM 44.5267 -88.0647 287° West 425 489 34,000  Level Minneapolis Center
09:11PM 44.5606 -88.2261 286° West 432 497 34,000  Level Minneapolis Center
09:12PM 44.5797 -88.3892 279° West 428 493 34,000 -878 Level Minneapolis Center
09:13PM 44.5983 -88.5517 279° West 426 490 32,200 -976 Descending Minneapolis Center
09:14PM 44.6172 -88.7178 279° West 432 497 32,000 -97 Descending Minneapolis Center
09:15PM 44.6392 -88.9097 279° West 430 495 32,000  Level Minneapolis Center
09:16PM 44.6572 -89.0761 279° West 433 498 32,000  Level Minneapolis Center
09:17PM 44.6764 -89.2408 279° West 430 495 32,000 -634 Level Minneapolis Center
09:18PM 44.6944 -89.4058 279° West 430 495 30,700 -976 Descending Minneapolis Center
09:19PM 44.7122 -89.5697 279° West 428 493 30,000 -339 Descending Minneapolis Center
09:20PM 44.7331 -89.7619 279° West 427 491 30,000  Level Minneapolis Center
09:21PM 44.7500 -89.9264 278° West 427 491 30,000  Level Minneapolis Center
09:22PM 44.7667 -90.0897 278° West 425 489 30,000  Level Minneapolis Center
09:23PM 44.7833 -90.2547 278° West 426 490 30,000  Level Minneapolis Center
09:24PM 44.8003 -90.4175 278° West 425 489 30,000  Level Minneapolis Center
09:25PM 44.8172 -90.5881 278° West 427 491 30,000 -290 Level Minneapolis Center
09:26PM 44.8436 -90.7494 283° West 425 489 29,400 -1,306 Descending Minneapolis Center
09:27PM 44.8700 -90.9472 281° West 431 496 27,300 -1,659 Descending Minneapolis Center
09:28PM 44.8914 -91.1128 280° West 430 495 26,000 -1,610 Descending Minneapolis Center
09:29PM 44.9131 -91.2733 281° West 425 489 24,000 -1,935 Descending Minneapolis Center
09:30PM 44.9353 -91.4289 281° West 413 475 22,000 -2,146 Descending Minneapolis Center
09:31PM 44.9542 -91.5811 280° West 402 463 19,600 -2,341 Descending Minneapolis Center
09:32PM 44.9750 -91.7278 281° West 391 450 17,200 -2,226 Descending Minneapolis Center
09:33PM 44.9953 -91.8700 281° West 379 436 15,000 -1,951 Descending Minneapolis Center
09:35PM 45.0172 -92.0267 281° West 339 390 13,200 -1,854 Descending Minneapolis Center
09:36PM 45.0319 -92.1503 280° West 322 371 11,200 -1,548 Descending Minneapolis Center
09:37PM 45.0481 -92.2775 280° West 331 381 10,000 -585 Descending Minneapolis Center
09:38PM 45.0322 -92.4044 260° West 330 380 10,000 -439 Level Minneapolis Center
09:39PM 45.0053 -92.5158 251° West 301 346 9,100 -1,306 Descending Minneapolis Center
09:40PM 44.9644 -92.6200 241° Southwest 304 350 7,300 -1,024 Descending Minneapolis Center
09:41PM 44.9161 -92.7175 235° Southwest 302 348 7,000 -244 Descending Minneapolis Center
09:42PM 44.8561 -92.8267 232° Southwest 293 337 6,800 -677 Descending Minneapolis Center
09:43PM 44.8231 -92.9075 240° Southwest 244 281 5,600 -1,161 Descending Minneapolis Center

Login

Don't have an account? Register now (free) for customized features, flight alerts, and more!